Regional Weather Roundup
Issued by NWS Goodland, KS

Home | Current Version | Previous Version | Text Only | Print | Product List | Glossary Off
Versions: 1 2 3 4 5 6 7 8 9 10 11 12 13 14 15 16 17 18 19 20 21 22 23 24 25 26 27 28 29 30 31 32 33 34 35 36 37 38 39 40 41 42 43 44 45 46 47 48 49 50

000
ASUS43 KGLD 301408
RWRGLD

GOODLAND FORECAST AREA HOURLY WEATHER ROUNDUP
NATIONAL WEATHER SERVICE GOODLAND KS
800 AM MDT MON MAY 30 2016

...OFFICIAL OBSERVATIONS...

CITY           SKY/WX    TMP DP  RH WIND       PRES   REMARKS
GOODLAND KS    SUNNY     61  52  72 S8        30.02R
HILL CITY KS   SUNNY     62  55  77 SE3       30.02S
IMPERIAL NEB   SUNNY     62  52  69 SW6       30.01R
MCCOOK NEB     SUNNY     66  54  65 S3        30.00S
AKRON CO       SUNNY     59  49  69 S8        30.03F
BURLINGTON CO  SUNNY     61  50  67 SW12      30.03S
LIMON CO       SUNNY     52  48  86 SE6       30.08F
$$

...UNOFFICIAL OBSERVATIONS...

CITY           SKY/WX    TMP DP  RH WIND       PRES   REMARKS
GOVE KS          N/A     74  32  21 MISG        N/A
LENORA KS        N/A     65  32  29 MISG        N/A
SHARON SPRINGS   N/A     60  55  83 S12G18      N/A
KIT CARSON CO    N/A     57  51  79 MISG        N/A
YUMA CO          N/A     61  52  71 SW5G12      N/A
$$




USA.gov is the U.S. government's official web portal to all federal, state and local government web resources and services.